SB KEPS @ AMSAT $ORB13325.N 2Line Orbital Elements 13325.AMSAT
HR AMSAT ORBITAL ELEMENTS FOR AMATEUR SATELLITES IN NASA FORMAT FROM WA5QGD FORT WORTH,TX November 21, 2013 BID: ORB13325.N
DECODE 2-LINE ELSETS WITH THE FOLLOWING KEY: 1 AAAAAU 00 0 0 BBBBB.BBBBBBBB .CCCCCCCC 00000-0 00000-0 0 DDDZ 2 AAAAA EEE.EEEE FFF.FFFF GGGGGGG HHH.HHHH III.IIII JJ.JJJJJJJJKKKKKZ KEY: A-CATALOGNUM B-EPOCHTIME C-DECAY D-ELSETNUM E-INCLINATION F-RAAN G-ECCENTRICITY H-ARGPERIGEE I-MNANOM J-MNMOTION K-ORBITNUM Z-CHECKSUM
TO ALL RADIO AMATEURS BT
AO-07 1 07530U 74089B 13324.20826457 -.00000023 00000-0 12889-3 0 8288 2 07530 101.4491 308.1397 0011896 345.0267 082.1692 12.53599701785336 FO-29 1 24278U 96046B 13325.13415273 -.00000012 00000-0 21173-4 0 2454 2 24278 098.5343 002.5481 0351512 117.3244 313.5772 13.53009857852538 SO-33 1 25509U 98061B 13325.83793894 .00000744 00000-0 13655-3 0 6311 2 25509 031.4317 254.9416 0350549 098.2454 301.9798 14.29239914787464 RS-22 1 27939U 03042A 13325.73013472 .00001408 00000-0 27269-3 0 9688 2 27939 097.7967 145.3963 0014158 049.5707 310.6741 14.64690330542356 VO-52 1 28650U 05017B 13325.14563796 .00003094 00000-0 37197-3 0 5856 2 28650 097.5633 335.6860 0027157 122.4023 280.4069 14.84363740462363 HO-68 1 36122U 09072B 13325.68816107 -.00000044 00000-0 00000 0 0 813 2 36122 100.2842 018.6102 0007400 356.1389 003.9671 13.16309023189133 UO-11 1 14781U 84021B 13324.78664216 .00001349 00000-0 18017-3 0 3417 2 14781 097.8833 023.7007 0010029 135.4282 224.7738 14.81124455597118 AO-16 1 20439U 90005D 13325.63551046 .00000376 00000-0 15514-3 0 8888 2 20439 098.4873 262.1140 0011770 057.6484 066.0685 14.32236110244773 LO-19 1 20442U 90005G 13324.79450021 .00000421 00000-0 17105-3 0 8271 2 20442 098.4574 262.5837 0012593 050.0890 339.4082 14.32443103244853 AO-27 1 22825U 93061C 13324.83551325 .00000282 00000-0 12715-3 0 5305 2 22825 098.6373 267.3306 0008507 181.4711 202.3166 14.29616093 51015 IO-26 1 22826U 93061D 13325.09147345 .00000314 00000-0 13891-3 0 2868 2 22826 098.6316 267.8402 0009210 174.2153 249.4199 14.29905975 51183 GO-32 1 25397U 98043D 13324.87944819 .00000201 00000-0 10686-3 0 2117 2 25397 098.4390 285.9966 0001592 152.6497 261.0311 14.23376468798234 NO-44 1 26931U 01043C 13325.14853892 .00000204 00000-0 11103-3 0 4713 2 26931 067.0514 214.8667 0006626 262.8548 249.1235 14.29991453633864 SO-50 1 27607U 02058C 13325.54496890 .00001699 00000-0 28126-3 0 2288 2 27607 064.5556 145.0153 0032146 098.3302 287.2352 14.73202196586895 CO-55 1 27844U 03031E 13325.89935677 .00000508 00000-0 25304-3 0 7910 2 27844 098.7010 332.6830 0010437 149.7548 281.5387 14.21316735539138 CO-57 1 27848U 03031J 13324.88387971 .00000424 00000-0 21545-3 0 7314 2 27848 098.7101 331.2791 0010242 158.2623 320.3006 14.21029001538919 AO-51 1 28375U 04025K 13325.85259682 .00000514 00000-0 16622-3 0 7061 2 28375 098.2240 275.1565 0082127 258.9131 154.1035 14.41212778494049 CP3 1 31129U 07012N 13324.96608689 .00002550 00000-0 57774-3 0 6049 2 31129 097.9126 308.8891 0098298 299.8454 080.1873 14.53996503349778 CO-65 1 32785U 08021C 13325.12766556 .00003105 00000-0 37539-3 0 7939 2 32785 097.7309 018.0437 0015058 148.4514 239.6986 14.84336448301159 PRISM 1 33493U 09002B 13325.73337216 .00007127 00000-0 79841-3 0 3868 2 33493 098.2332 128.1438 0018689 042.8294 317.4363 14.87056773261328 SOHLA-1 1 33496U 09002E 13325.20743183 .00001033 00000-0 17878-3 0 2037 2 33496 098.1500 080.9772 0006920 173.1671 318.6125 14.70456358258943 SO-67 1 35870U 09049F 13325.87803438 .00010947 00000-0 39181-3 0 6320 2 35870 097.1798 349.0391 0003486 101.0189 022.2365 15.28934651232333 TISAT-1 1 36799U 10035E 13325.73348085 .00005210 00000-0 63077-3 0 6514 2 36799 098.0298 051.3648 0013005 277.8377 082.1363 14.84037849181932 STUDSAT 1 36801U 10035G 13324.53462736 .00020259 00000-0 20651-2 0 7178 2 36801 098.0411 054.9197 0010518 256.0428 230.4146 14.90667970181986 ALMASAT-1 1 38078U 12006B 13326.09194571 .00036147 00000-0 82128-3 0 8136 2 38078 069.4762 192.4123 0661960 303.5198 125.9829 14.33859695 91796 XATCOBEO 1 38082U 12006F 13325.70475312 .00090065 47423-5 13631-2 0 6968 2 38082 069.4689 146.4946 0478584 278.3553 076.3625 14.80956914 93028 SOMP 1 39135U 13015F 13324.80657709 .00010330 00000-0 80507-3 0 3743 2 39135 064.8768 076.3622 0007002 335.8714 024.2073 15.01578306 32333 CUBEBUG-1 1 39153U 13018D 13325.82329145 .00002651 00000-0 38444-3 0 6012 2 39153 098.0642 041.4912 0017213 300.7661 059.1832 14.76815818 30943 ESTCUBE-1 1 39161U 13021C 13325.83818599 .00002303 00000-0 39852-3 0 5716 2 39161 098.1193 043.1912 0009999 341.6661 018.4184 14.69286527 29148 NOAA-10 1 16969U 86073A 13325.54756987 .00000196 00000-0 96897-4 0 5759 2 16969 098.5326 349.8544 0013163 141.6883 019.9958 14.27684837414390 NOAA-11 1 19531U 88089A 13325.34416945 .00000128 00000-0 88310-4 0 5982 2 19531 098.7008 044.5944 0011722 167.9784 192.1672 14.15039759298346 NOAA-12 1 21263U 91032A 13325.55016065 .00000142 00000-0 78377-4 0 557 2 21263 098.6847 349.5904 0014939 121.3219 353.9754 14.25601559170975 MET-3/5 1 21655U 91056A 13324.81877981 .00000010 00000-0 -67623-5 0 8363 2 21655 082.5541 143.6437 0014328 098.6675 261.6071 13.17051992 70551 MET-2/21 1 22782U 93055A 13325.17635791 .00000066 00000-0 46022-4 0 9020 2 22782 082.5487 338.3542 0023617 127.5897 277.7404 13.83716043 21351 OKEAN-4 1 23317U 94066A 13325.51443641 .00002624 00000-0 30502-3 0 3826 2 23317 082.5396 262.5052 0022644 068.6401 047.9874 14.84807488 32282 NOAA-14 1 23455U 94089A 13325.46736376 .00000078 00000-0 64281-4 0 5317 2 23455 098.7945 047.4592 0008469 269.0483 223.0823 14.13931713974590 NOAA-15 1 25338U 98030A 13325.55051506 .00000355 00000-0 16978-3 0 9618 2 25338 098.7384 315.0115 0011121 036.5814 071.0552 14.25296313807260 RESURS 1 25394U 98043A 13325.85542870 .00000144 00000-0 80186-4 0 5228 2 25394 098.3844 294.3016 0002302 127.1936 287.9694 14.24348250798802 FENGYUN1 1 25730U 99025A 13324.57308407 .00004981 00000-0 27880-2 0 157 2 25730 098.8944 282.3110 0027304 336.2940 076.5245 14.10954603748091 OKEAN-0 1 25860U 99039A 13324.98242458 .00001305 00000-0 20251-3 0 1024 2 25860 098.0138 285.5307 0001544 076.4948 323.7165 14.74800762771465 NOAA-16 1 26536U 00055A 13325.48670172 .00000233 00000-0 14942-3 0 4470 2 26536 099.0221 019.6464 0011113 056.6762 056.9294 14.12946638678781 NOAA-17 1 27453U 02032A 13325.54350628 .00000307 00000-0 14925-3 0 3522 2 27453 098.3115 331.2680 0012659 067.7279 042.2171 14.24646440593126 NOAA-18 1 28654U 05018A 13325.55432699 .00000462 00000-0 27783-3 0 8436 2 28654 099.1225 296.2039 0015165 125.2153 344.0860 14.11894913438262 NOAA-19 1 33591U 09005A 13325.52679850 .00000510 00000-0 30525-3 0 154 2 33591 098.9214 266.4668 0013833 349.9376 062.9161 14.11586080246699 HUBBLE 1 20580U 90037B 13325.35559810 .00004013 00000-0 26967-3 0 3786 2 20580 028.4718 322.1197 0002980 222.9019 286.7263 15.04228535 93388 ISS 1 25544U 98067A 13325.92002315 .00021088 00000-0 37105-3 0 760 2 25544 051.6497 046.8619 0001390 113.7231 223.9775 15.50414624859165 CO-58 1 28895U 05043F 13324.82542406 .00001586 00000-0 32925-3 0 6269 2 28895 097.8500 172.3602 0016415 310.6891 049.2884 14.61354885429813 FALCON 1 30776U 07006E 13324.45080267 .00011397 00000-0 64553-3 0 7413 2 30776 035.4315 322.1352 0002681 227.1062 261.5619 15.12308300369079 MAST 1 31126U 07012K 13324.90628727 .00001448 00000-0 32982-3 0 9058 2 31126 097.8944 312.0007 0091393 284.1327 131.1626 14.54804482350100 CAPE1 1 31130U 07012P 13325.19641052 .00002452 00000-0 55800-3 0 9084 2 31130 097.9137 308.7137 0098813 300.2108 058.9332 14.53797080349581 COMPASS 1 32787U 08021E 13325.11615697 .00004341 00000-0 49860-3 0 7853 2 32787 097.7327 019.5025 0015352 143.7544 216.4715 14.86254279301266 AAUSAT2 1 32788U 08021F 13325.14036916 .00005510 00000-0 62309-3 0 7681 2 32788 097.7333 020.2900 0014911 142.9779 217.2469 14.86784700301314 DO-64 1 32789U 08021G 13325.13385561 .00009677 00000-0 10059-2 0 8058 2 32789 097.7507 025.0575 0014205 134.1892 258.0287 14.90021317301486 CO-66 1 32791U 08021J 13325.12011648 .00003424 00000-0 40430-3 0 7625 2 32791 097.7325 018.6491 0015870 145.6892 266.4832 14.85247590301169 RS-30 1 32953U 08025A 13325.73535438 .00000010 00000-0 00000 0 0 4017 2 32953 082.5012 330.2192 0017569 248.3869 111.5354 12.43039676249488 METEOR-M 1 35865U 09049A 13326.06845122 .00000060 00000-0 46761-4 0 76 2 35865 098.5830 014.4467 0002697 357.6979 031.4196 14.21899187216900 RS-38 1 35869U 09049E 13325.78681620 .00000148 00000-0 86018-4 0 9647 2 35869 098.5763 014.0405 0004617 349.6081 010.5001 14.22158939216891 JUGNU 1 37839U 11058B 13324.75749814 .00000702 00000-0 23383-3 0 5057 2 37839 019.9625 078.0625 0018729 208.3370 307.2678 14.12208562109051 SRMSAT 1 37841U 11058D 13324.74428645 .00000591 00000-0 18189-3 0 5048 2 37841 019.9725 093.2987 0011700 154.5491 342.8790 14.10268720108894 RAX-2 1 37853U 11061D 13324.75450721 .00015439 00000-0 11187-2 0 6505 2 37853 101.7008 250.9990 0228824 298.1433 089.4772 14.85474531111670 AUBIESAT 1 37854U 11061E 13325.77268450 .00015109 00000-0 10687-2 0 6367 2 37854 101.7045 253.7145 0227937 293.3357 092.3752 14.86433784111858 HRBE 1 37855U 11061F 13325.75547817 .00015486 00000-0 11037-2 0 6440 2 37855 101.7046 253.3180 0229253 294.1194 123.9666 14.85975485111837 RS-39 1 38051U 11062C 13325.89285380 .00029656 00000-0 77818-3 0 9941 2 38051 051.6330 166.7716 0010684 126.5822 006.1536 15.38341364102008 E-STAR 1 38079U 12006C 13325.71324095 .00068528 40258-5 11689-2 0 6178 2 38079 069.4673 159.9327 0540165 285.8718 151.2110 14.65683947 92656 GOLIAT 1 38085U 12006J 13325.70049534 .00057731 37878-5 99564-3 0 5587 2 38085 069.4708 163.6117 0553304 287.7260 066.4086 14.62743368 92552 HORYU-2 1 38340U 12025D 13325.42246522 .00003335 00000-0 54591-3 0 6751 2 38340 098.2344 274.6272 0013237 110.6850 249.5756 14.71423157 81234 RS-40 1 38736U 12041D 13324.88299177 .00000010 00000-0 00000 0 0 4309 2 38736 082.4809 057.4243 0020744 347.1092 012.9460 12.42873533 59710 PROITERES 1 38756U 12047B 13325.84110379 .00001634 00000-0 25380-3 0 3225 2 38756 098.2439 045.6991 0012217 330.6887 029.3620 14.74459271 64622 RAIKO 1 38852U 98067CN 13218.07382584 .24681979 12625-4 36599-3 0 3409 2 38852 051.6160 184.0336 0004489 261.9162 100.6538 16.48474690 47849 BEESAT-3 1 39134U 13015E 13325.79462953 .00011272 00000-0 87277-3 0 4272 2 39134 064.8637 073.1627 0006877 332.2882 027.7840 15.01770084 32486 BEESAT-2 1 39136U 13015G 13325.53751388 .00010071 00000-0 78517-3 0 4171 2 39136 064.8618 074.0367 0006682 333.0719 027.0051 15.01580065 32441 /EX
participants (1)
-
Ray Hoad